CAPE
1022 966 916 786 595 829 858 463 213 20 0 0 1 1 0 0 0 0 0 0 0 0 0 0 0 0 0
781 790 780 823 645 672 685 164 47 0 0 0 0 0 0 0 0 0 0 0 0 0 0 0 0 0 0
446 475 572 631 601 611 384 9 0 0 0 0 0 0 0 0 0 0 0 0 0 0 0 0 0 0 0
408 528 485 589 530 463 102 0 0 0 0 0 0 0 0 0 0 0 0 0 0 0 0 0 0 0 0
198 220 425 429 430 337 133 0 0 0 0 0 0 0 0 0 0 0 0 0 0 0 0 0 0 0 0
151 127 157 199 91 112 190 81 0 0 0 0 0 0 0 0 0 0 0 0 0 0 0 0 0 0 0
65 102 80 100 81 5 27 142 2 0 0 0 0 0 0 0 0 0 0 0 0 0 0 0 0 0 0
0 5 23 27 59 85 18 45 0 0 0 0 0 0 0 0 0 0 0 0 0 0 0 0 0 0 0
0 0 0 0 0 13 32 1 0 0 0 0 0 0 0 0 0 0 0 0 0 0 0 0 0 0 0
0 0 0 0 0 0 0 0 0 0 0 0 0 0 0 0 0 0 0 0 0 0 0 0 0 0 0
0 0 0 0 0 0 0 1 0 0 0 0 0 0 0 0 0 0 0 0 0 0 0 0 0 0 0
0 0 0 0 0 0 0 2 1 0 0 0 0 0 0 0 0 0 0 0 0 0 0 0 0 0 0
0 0 0 0 0 0 0 1 1 0 0 0 0 0 0 0 0 0 0 0 0 0 0 0 0 0 0
0 0 0 0 0 0 0 0 1 0 0 0 0 0 0 0 0 0 0 0 0 0 0 0 0 0 0
0 0 0 0 0 0 0 0 0 0 0 0 0 0 0 0 0 0 0 0 0 0 0 0 0 0 0
0 0 0 0 0 0 0 0 0 0 0 0 0 0 0 0 0 0 0 0 0 0 0 0 0 0 0
CIN
-78 -61 -49 -60 -95 -33 -22 -91 -194 -392 0 0 0 0 0 0 0 0 0 0 0 0 0 0 0 0 0
-165 -138 -109 -68 -95 -67 -62 -239 -341 0 0 0 0 0 0 0 0 0 0 0 0 0 0 0 0 0 0
-309 -269 -197 -142 -117 -92 -148 -284 0 0 0 0 0 0 0 0 0 0 0 0 0 0 0 0 0 0 0
-336 -263 -253 -184 -179 -172 -327 0 0 0 0 0 0 0 0 0 0 0 0 0 0 0 0 0 0 0 0
-390 -360 -274 -250 -229 -248 -333 0 0 0 0 0 0 0 0 0 0 0 0 0 0 0 0 0 0 0 0
-385 -400 -387 -342 -383 -332 -277 -331 -9 0 0 0 0 0 0 0 0 0 0 0 0 0 0 0 0 0 0
-448 -419 -446 -428 -452 -299 -320 -264 -120 0 0 0 0 0 0 0 0 0 0 0 0 0 0 0 0 0 0
0 -171 -499 -503 -461 -415 -414 -331 -9 0 0 0 0 0 0 0 0 0 0 0 0 0 0 0 0 0 0
0 0 0 0 -39 -491 -403 -53 0 0 0 0 0 0 0 0 0 0 0 0 0 0 0 0 0 0 0
0 0 0 0 0 0 0 0 0 0 0 0 0 0 0 0 0 0 0 0 0 0 0 0 0 0 0
0 0 0 0 0 0 0 -4 0 0 0 0 0 0 0 0 0 0 0 0 0 0 0 0 0 0 0
0 0 0 0 0 0 0 -9 -9 0 0 0 0 0 0 0 0 0 0 0 0 0 0 0 0 0 0
0 0 0 0 0 0 -9 -5 -12 0 0 0 0 0 0 0 0 0 0 0 0 0 0 0 0 0 0
0 0 0 0 0 0 0 -2 -12 0 0 0 0 0 0 0 0 0 0 0 0 0 0 0 0 0 0
0 0 0 0 0 0 0 0 0 -5 0 0 0 0 0 0 0 0 0 0 0 0 0 0 0 0 0
0 0 0 0 0 0 0 0 0 0 0 0 0 0 0 0 0 0 0 0 0 0 0 0 0 0 0
Wind_Speed
9 10 9 5 2 2 2 2 3 4 7 9 9 9 10 11 11 12 12 13 13 14 14 15 15 17 15
8 9 9 9 8 6 3 3 4 6 8 10 9 10 10 10 10 11 11 12 13 14 14 15 16 18 17
4 5 8 9 7 5 6 4 3 7 9 9 9 10 10 10 10 10 11 11 12 14 15 16 17 17 17
4 4 4 4 4 4 4 4 4 5 6 6 6 8 8 9 9 10 11 12 12 14 14 16 16 17 17
6 6 6 6 6 6 5 5 5 7 7 6 6 6 7 6 8 9 10 12 15 14 15 15 16 17 17
8 7 7 7 8 10 9 8 7 8 9 8 8 7 7 7 7 8 10 12 13 15 15 15 16 17 17
9 9 9 8 8 10 13 11 11 11 11 10 10 9 9 7 8 7 9 11 12 13 14 15 16 17 17
10 11 11 11 10 9 11 12 11 12 13 13 13 12 10 10 11 10 11 11 11 12 13 14 15 16 17
12 13 14 14 14 13 12 11 11 11 12 13 13 13 12 12 12 13 13 13 14 14 15 15 16 17 17
16 17 18 19 19 19 17 17 15 14 15 15 15 15 15 14 13 14 14 14 15 15 16 17 17 18 18
19 20 20 20 22 21 23 21 20 18 18 19 19 18 16 15 15 15 16 16 17 17 18 18 19 19 19
19 22 23 21 22 22 22 24 22 21 21 22 22 21 19 18 17 17 17 18 18 17 17 19 21 21 20
20 19 20 22 21 21 22 22 23 23 22 23 24 23 22 21 21 19 19 19 19 17 20 23 24 23 22
21 19 20 20 20 21 20 22 23 22 21 22 25 26 25 24 23 22 22 22 23 17 23 24 29 28 25
24 21 20 21 22 24 24 24 24 23 23 23 24 26 27 26 27 25 24 23 24 22 22 25 28 31 26
24 23 23 22 22 24 25 24 25 25 26 25 25 26 28 28 28 28 27 27 28 28 28 29 29 26 28
Wind_Direction
155 163 164 167 225 246 225 285 312 328 331 335 337 341 341 338 338 336 335 335 336 336 334 333 330 325 332
168 170 171 172 172 177 222 259 291 309 316 320 320 322 327 330 333 336 336 333 334 334 332 329 324 320 328
195 193 185 182 181 184 180 189 277 304 309 313 311 312 315 319 323 327 331 333 333 332 330 327 323 325 327
258 260 232 227 218 207 208 226 272 300 310 313 311 311 313 315 318 319 319 324 329 328 328 325 326 327 328
272 281 274 269 262 253 240 250 268 292 301 304 306 310 312 316 318 318 319 318 316 320 322 324 325 325 328
277 266 276 264 263 273 265 257 257 280 287 284 291 291 295 300 306 309 312 314 317 317 320 321 323 325 327
254 270 264 266 260 261 273 264 266 269 278 280 284 283 283 282 290 296 305 309 312 315 319 321 322 323 325
266 264 271 271 272 263 259 267 262 269 274 277 278 277 275 276 285 286 293 298 305 311 315 318 320 323 325
273 277 278 280 277 274 269 264 261 265 271 275 274 274 274 278 281 285 289 292 296 301 306 312 315 318 322
281 283 285 285 284 283 280 279 270 267 272 273 271 271 275 275 276 278 280 284 288 293 298 303 308 312 315
288 286 286 285 286 285 285 282 278 271 273 274 274 272 270 269 272 273 276 277 282 287 292 297 301 305 307
302 297 293 290 287 287 284 285 281 277 274 276 275 272 268 266 268 269 269 275 278 280 287 292 296 299 302
316 309 302 297 299 293 292 289 287 282 277 275 276 273 267 264 264 263 271 268 275 277 288 293 293 294 295
325 321 313 314 309 304 299 295 294 291 284 278 277 275 269 267 265 261 264 270 276 263 281 289 289 291 291
332 329 324 318 315 308 306 304 301 297 294 287 282 277 272 268 266 263 260 259 266 263 271 284 289 288 293
339 334 328 329 323 316 311 308 306 304 297 294 288 282 278 271 268 264 262 262 267 264 271 273 286 288 288